Notices

What's New in latest Release from April 7th, 2021:

- Updated Glossary, including Speed of Maximum Gust, and Total Hourly Precipitation

- Updated national and regional climate services offices contacts and prices information

- Addition of station inventory lists for 1981-2010, 1971-2000, and 1961-1990 Normals.

If you haven't already, please take our survey and provide feedback about our website: https://eccc.sondage-survey.ca/f/LanguageSelection.aspx?s=442ca660-fcf1-47c0-95a9-59707d6fd709

Hourly Data Report for December 28, 2004

TORONTO CITY
ONTARIO

43°40'00.000" N
79°24'00.000" W
112.50 m
6158355
71508
XTO

Download Data

Hourly Data (December 2004)
Hourly Data Report for December 28, 2004
TIME
LST
Temp Definition
°C
Dew Point Definition
°C
Rel Hum Definition
%
Precip. Amount Definition
mm

Wind Dir Definition
10's deg

Wind Spd Definition
km/h
Visibility Definition
km
Stn Press Definition
kPa
Hmdx Definition


Wind Chill Definition


Weather Definition


00:00 -10.2 -14.2 72   LegendMM LegendMM LegendMM 102.01     LegendNANA
01:00 -10.5 -14.3 74   LegendMM LegendMM LegendMM 101.95     LegendNANA
02:00 -10.6 -13.9 77   LegendMM LegendMM LegendMM 101.90     LegendNANA
03:00 -10.0 -13.1 78   LegendMM LegendMM LegendMM 101.89     LegendNANA
04:00 -9.0 -12.0 79   LegendMM LegendMM LegendMM 101.80     LegendNANA
05:00 -8.1 -11.8 75   LegendMM LegendMM LegendMM 101.72     LegendNANA
06:00 -7.1 -11.7 70   LegendMM LegendMM LegendMM 101.65     LegendNANA
07:00 -5.9 -9.0 79   LegendMM LegendMM LegendMM 101.62     LegendNANA
08:00 -5.3 -6.5 91   LegendMM LegendMM LegendMM 101.52     LegendNANA
09:00 -4.1 -6.5 83   LegendMM LegendMM LegendMM 101.43     LegendNANA
10:00 -2.5 -6.5 74   LegendMM LegendMM LegendMM 101.29     LegendNANA
11:00 -1.8 -6.2 72   LegendMM LegendMM LegendMM 101.17     LegendNANA
12:00 -1.2 -5.7 71   LegendMM LegendMM LegendMM 100.95     LegendNANA
13:00 -1.0 -5.5 71   LegendMM LegendMM LegendMM 100.77     LegendNANA
14:00 -0.7 -5.9 68   LegendMM LegendMM LegendMM 100.61     LegendNANA
15:00 -0.9 -6.2 67   LegendMM LegendMM LegendMM 100.50     LegendNANA
16:00 -0.7 -5.9 68   LegendMM LegendMM LegendMM 100.43     LegendNANA
17:00 -0.5 -5.3 70   LegendMM LegendMM LegendMM 100.35     LegendNANA
18:00 0.1 -4.1 73   LegendMM LegendMM LegendMM 100.29     LegendNANA
19:00 -0.1 -4.5 72   LegendMM LegendMM LegendMM 100.28     LegendNANA
20:00 -0.4 -4.6 73   LegendMM LegendMM LegendMM 100.26     LegendNANA
21:00 -0.5 -4.1 77   LegendMM LegendMM LegendMM 100.23     LegendNANA
22:00 -0.5 -4.0 77   LegendMM LegendMM LegendMM 100.21     LegendNANA
23:00 -0.7 -4.0 78   LegendMM LegendMM LegendMM 100.22     LegendNANA

Notes on Data Quality.

Legend

  • E = Estimated
  • M = Missing
  • NA = Not Available*
  • [empty] = Indicates an unobserved value
Date modified: